Regional Weather Roundup
Issued by NWS Bismarck, ND

Home | Current Version | Previous Version | Text Only | Print | Product List | Glossary On
Versions: 1 2 3 4 5 6 7 8 9 10 11 12 13 14 15 16 17 18 19 20 21 22 23 24 25 26 27 28 29 30 31 32 33 34 35 36 37 38 39 40 41 42 43 44 45 46 47 48 49 50
000
ASUS43 KBIS 291410
RWRBIS

NWR BROADCAST TEXT
NATIONAL WEATHER SERVICE BISMARCK ND
900 AM CDT SUN MAR 29 2015

NOTE: "FAIR" INDICATES FEW OR NO CLOUDS BELOW 12,000 FEET WITH NO
SIGNIFICANT WEATHER AND/OR OBSTRUCTIONS TO VISIBILITY.


CITY           SKY/WX    TMP DP  RH WIND       PRES   REMARKS
WILLISTON      MOSUNNY   38  34  85 W16       30.06S
MINOT          SUNNY     40  30  67 W21G29    29.96R
MINOT AFB      SUNNY     39  36  89 NW18      29.95R
BISMARCK       SUNNY     40  33  76 NW20G29   30.00R
DICKINSON      SUNNY     37  33  85 W20       30.07R
GARRISON         N/A     38  33  82 NW20      30.00R
HETTINGER ARPT SUNNY     37  33  85 NW15      30.10R
JAMESTOWN      MOSUNNY   39  35  86 NW28G37   29.84R
BEACH          FAIR      37  37 100 W13       30.12S
CARRINGTON     FAIR      37  37 100 NW29G35   29.88R
CROSBY         FAIR      36  36 100 W16       30.03R
HARVEY         FAIR      37  36  93 NW21G29   29.93R
HAZEN          FAIR      39  32  75 W15       30.04R
LINTON         FAIR      39  37  93 NW18G26   29.99R
MANDAN         FAIR      39  32  75 NW21G29   30.01R
OAKES            N/A     39  39 100 NW31G46   29.80R
RUGBY          FAIR      36  32  87 NW20G28   29.90R
WATFORD CITY   FAIR      36  36 100 W12       30.06S
$$

CITY           SKY/WX    TMP DP  RH WIND       PRES   REMARKS
GRAND FORKS    CLOUDY    39  33  79 NW24G36   29.73R
GRAND FORKS AF PTSUNNY   38  33  80 N20G26    29.74R
DEVILS LAKE    SUNNY     37  32  81 NW21      29.83R
FARGO          LGT RAIN  40  34  79 NW25G38   29.71R
CAVALIER       CLOUDY    37  32  81 NW21G29   29.76R
GWINNER        PTSUNNY   43  39  87 NW35G43     N/A
ROLLA          FAIR      37  32  81 NW30G36   29.85R
WALHALLA         N/A     39  39 100 NW22G28   29.77R
$$

CITY           SKY/WX    TMP DP  RH WIND       PRES   REMARKS
ABERDEEN       CLOUDY    42  37  82 NW31G40   29.87R
MOBRIDGE       CLOUDY    41  34  76 NW28G37   29.98R
BUFFALO          N/A     37  32  82 W14       30.10R
RAPID CITY     PTSUNNY   43  34  70 N28G36    30.17R
GLASGOW        SUNNY     35  33  92 SW7       30.10F
SIDNEY         SUNNY     39  34  81 W9        30.10S
WOLF POINT     SUNNY     37  34  89 SW9       30.11S
GLENDIVE         N/A     37  34  87 W8        30.14S
MILES CITY     SUNNY     41  38  89 W7        30.16F
BAKER          SUNNY     35  32  88 W7        30.15R
$$

CITY           SKY/WX    TMP DP  RH WIND       PRES   REMARKS
BILLINGS       PTCLDY    43  23  45 SW8       30.22R
GREAT FALLS    MOCLDY    40  28  62 SW12      30.16S
REGINA         MOSUNNY   34  34 100 W12       29.99R
ESTEVAN        MOSUNNY   36  32  87 W14       30.01R
$$




USA.gov is the U.S. government's official web portal to all federal, state and local government web resources and services.